| time (UTC) | temp F | wind direction | speed MPH | gust MPH | rain 1hr in | rain 24hr in | rain mn in | humidity % | barometer mb |
| 20260905191406 | 62 | 300 | 9.0 | 9.0 | 0.00 | 0.00 | 0.00 | 64 | 1021.0 |
| 20260905191207 | 63 | 300 | 16.0 | 18.0 | 0.00 | 0.00 | 0.00 | 63 | 1021.0 |
| 20260905191009 | 63 | 288 | 18.0 | 19.0 | 0.00 | 0.00 | 0.00 | 62 | 1021.0 |
| 20260905190904 | 63 | 287 | 22.0 | 24.0 | 0.00 | 0.00 | 0.00 | 63 | 1021.0 |
| 20260905190807 | 63 | 285 | 18.0 | 19.0 | 0.00 | 0.00 | 0.00 | 63 | 1021.0 |
| 20260905190606 | 63 | 300 | 17.0 | 18.0 | 0.00 | 0.00 | 0.00 | 62 | 1021.0 |
| 20260905190405 | 63 | 288 | 21.0 | 22.0 | 0.00 | 0.00 | 0.00 | 62 | 1021.0 |
| 20260905190206 | 63 | 291 | 22.0 | 24.0 | 0.00 | 0.00 | 0.00 | 62 | 1021.0 |
| 20260905190018 | 63 | 288 | 15.0 | 17.0 | 0.00 | 0.00 | 0.00 | 62 | 1021.0 |
| 20260905185805 | 64 | 279 | 18.0 | 19.0 | 0.00 | 0.00 | 0.00 | 61 | 1021.0 |
| 20260905185606 | 64 | 294 | 9.0 | 9.0 | 0.00 | 0.00 | 0.00 | 61 | 1021.0 |
| 20260905185405 | 64 | 253 | 15.0 | 15.0 | 0.00 | 0.00 | 0.00 | 60 | 1020.0 |
| 20260905185207 | 64 | 258 | 18.0 | 19.0 | 0.00 | 0.00 | 0.00 | 60 | 1020.0 |
| 20260905185010 | 64 | 264 | 16.0 | 17.0 | 0.00 | 0.00 | 0.00 | 60 | 1020.0 |
| 20260905184806 | 64 | 270 | 8.0 | 8.0 | 0.00 | 0.00 | 0.00 | 60 | 1020.0 |
| 20260905184606 | 64 | 210 | 14.0 | 14.0 | 0.00 | 0.00 | 0.00 | 60 | 1020.0 |
| 20260905184204 | 64 | 264 | 8.0 | 8.0 | 0.00 | 0.00 | 0.00 | 60 | 1020.0 |
| 20260905183606 | 64 | 252 | 9.0 | 9.0 | 0.00 | 0.00 | 0.00 | 60 | 1020.0 |
| 20260905183405 | 64 | 252 | 8.0 | 8.0 | 0.00 | 0.00 | 0.00 | 60 | 1020.0 |
| 20260905183207 | 64 | 270 | 6.0 | 6.0 | 0.00 | 0.00 | 0.00 | 59 | 1020.0 |
| 20260905183014 | 64 | 236 | 8.0 | 8.0 | 0.00 | 0.00 | 0.00 | 59 | 1020.0 |
| 20260905182406 | 64 | 264 | 14.0 | 14.0 | 0.00 | 0.00 | 0.00 | 58 | 1020.0 |
| 20260905182207 | 64 | 252 | 8.0 | 8.0 | 0.00 | 0.00 | 0.00 | 59 | 1020.0 |
| 20260905182011 | 64 | 269 | 9.0 | 9.0 | 0.00 | 0.00 | 0.00 | 59 | 1020.0 |
| 20260905181807 | 63 | 204 | 16.0 | 17.0 | 0.00 | 0.00 | 0.00 | 58 | 1020.0 |
| 20260905181609 | 63 | 264 | 7.0 | 7.0 | 0.00 | 0.00 | 0.00 | 59 | 1020.0 |
| 20260905181205 | 63 | 267 | 9.0 | 9.0 | 0.00 | 0.00 | 0.00 | 59 | 1020.0 |
| 20260905180805 | 63 | 282 | 8.0 | 8.0 | 0.00 | 0.00 | 0.00 | 60 | 1020.0 |
| 20260905180605 | 63 | 282 | 8.0 | 8.0 | 0.00 | 0.00 | 0.00 | 59 | 1020.0 |
| 20260905180404 | 63 | 282 | 5.0 | 5.0 | 0.00 | 0.00 | 0.00 | 59 | 1020.0 |
| 20260905180205 | 63 | 288 | 6.0 | 6.0 | 0.00 | 0.00 | 0.00 | 59 | 1020.0 |
| 20260905175806 | 64 | 288 | 9.0 | 9.0 | 0.00 | 0.00 | 0.00 | 58 | 1020.0 |
| 20260905175605 | 64 | 299 | 8.0 | 8.0 | 0.00 | 0.00 | 0.00 | 58 | 1020.0 |
| 20260905175405 | 64 | 276 | 9.0 | 9.0 | 0.00 | 0.00 | 0.00 | 58 | 1020.0 |
| 20260905175207 | 64 | 282 | 7.0 | 7.0 | 0.00 | 0.00 | 0.00 | 58 | 1020.0 |
| 20260905174806 | 64 | 286 | 7.0 | 7.0 | 0.00 | 0.00 | 0.00 | 57 | 1020.0 |
| 20260905174606 | 64 | 284 | 8.0 | 8.0 | 0.00 | 0.00 | 0.00 | 57 | 1020.0 |
| 20260905174205 | 65 | 284 | 14.0 | 14.0 | 0.00 | 0.00 | 0.00 | 55 | 1020.0 |
| 20260905174012 | 65 | 284 | 5.0 | 5.0 | 0.00 | 0.00 | 0.00 | 55 | 1020.0 |
| 20260905173807 | 65 | 292 | 8.0 | 8.0 | 0.00 | 0.00 | 0.00 | 55 | 1020.0 |
| 20260905173606 | 66 | 282 | 9.0 | 9.0 | 0.00 | 0.00 | 0.00 | 54 | 1020.0 |
| 20260905173205 | 66 | 282 | 14.0 | 14.0 | 0.00 | 0.00 | 0.00 | 53 | 1020.0 |
| 20260905173011 | 67 | 298 | 14.0 | 14.0 | 0.00 | 0.00 | 0.00 | 52 | 1020.0 |
| 20260905172806 | 67 | 288 | 14.0 | 14.0 | 0.00 | 0.00 | 0.00 | 52 | 1020.0 |
| 20260905172605 | 67 | 274 | 9.0 | 9.0 | 0.00 | 0.00 | 0.00 | 51 | 1020.0 |
| 20260905172407 | 67 | 246 | 20.0 | 22.0 | 0.00 | 0.00 | 0.00 | 50 | 1020.0 |
| 20260905172207 | 67 | 282 | 24.0 | 26.0 | 0.00 | 0.00 | 0.00 | 50 | 1020.0 |
| 20260905172009 | 67 | 286 | 20.0 | 22.0 | 0.00 | 0.00 | 0.00 | 50 | 1020.0 |
| 20260905171806 | 67 | 246 | 31.0 | 31.0 | 0.00 | 0.00 | 0.00 | 50 | 1020.0 |
| 20260905171607 | 67 | 288 | 14.0 | 14.0 | 0.00 | 0.00 | 0.00 | 51 | 1020.0 |
| 20260905171406 | 67 | 276 | 15.0 | 15.0 | 0.00 | 0.00 | 0.00 | 50 | 1020.0 |
| 20260905171204 | 67 | 288 | 14.0 | 14.0 | 0.00 | 0.00 | 0.00 | 50 | 1020.0 |
| 20260905171010 | 68 | 237 | 16.0 | 17.0 | 0.00 | 0.00 | 0.00 | 50 | 1019.0 |
| 20260905170606 | 68 | 275 | 15.0 | 15.0 | 0.00 | 0.00 | 0.00 | 49 | 1019.0 |
| 20260905170407 | 68 | 324 | 32.0 | 34.0 | 0.00 | 0.00 | 0.00 | 49 | 1019.0 |
| 20260905170207 | 68 | 287 | 26.0 | 30.0 | 0.00 | 0.00 | 0.00 | 49 | 1019.0 |
| 20260905170019 | 69 | 248 | 20.0 | 22.0 | 0.00 | 0.00 | 0.00 | 48 | 1019.0 |
| 20260905165807 | 69 | 289 | 21.0 | 22.0 | 0.00 | 0.00 | 0.00 | 48 | 1019.0 |
| 20260905165607 | 69 | 289 | 23.0 | 26.0 | 0.00 | 0.00 | 0.00 | 47 | 1019.0 |
| 20260905165405 | 70 | 284 | 18.0 | 20.0 | 0.00 | 0.00 | 0.00 | 47 | 1019.0 |
| 20260905165206 | 70 | 281 | 38.0 | 43.0 | 0.00 | 0.00 | 0.00 | 47 | 1019.0 |
| 20260905165008 | 70 | 246 | 29.0 | 31.0 | 0.00 | 0.00 | 0.00 | 46 | 1019.0 |
| 20260905164607 | 70 | 264 | 24.0 | 28.0 | 0.00 | 0.00 | 0.00 | 46 | 1019.0 |
| 20260905164406 | 70 | 240 | 18.0 | 19.0 | 0.00 | 0.00 | 0.00 | 46 | 1019.0 |
| 20260905164207 | 71 | 256 | 30.0 | 31.0 | 0.00 | 0.00 | 0.00 | 45 | 1019.0 |
| 20260905164008 | 71 | 298 | 23.0 | 26.0 | 0.00 | 0.00 | 0.00 | 45 | 1019.0 |
| 20260905163806 | 71 | 252 | 17.0 | 18.0 | 0.00 | 0.00 | 0.00 | 45 | 1019.0 |
| 20260905163405 | 71 | 204 | 24.0 | 26.0 | 0.00 | 0.00 | 0.00 | 44 | 1019.0 |
| 20260905163205 | 71 | 247 | 14.0 | 14.0 | 0.00 | 0.00 | 0.00 | 44 | 1019.0 |
| 20260905163014 | 71 | 311 | 9.0 | 9.0 | 0.00 | 0.00 | 0.00 | 44 | 1019.0 |
| 20260905162805 | 71 | 234 | 18.0 | 19.0 | 0.00 | 0.00 | 0.00 | 44 | 1019.0 |
| 20260905162607 | 71 | 264 | 24.0 | 28.0 | 0.00 | 0.00 | 0.00 | 44 | 1019.0 |
| 20260905162406 | 71 | 229 | 29.0 | 30.0 | 0.00 | 0.00 | 0.00 | 44 | 1019.0 |
| 20260905162207 | 71 | 259 | 14.0 | 14.0 | 0.00 | 0.00 | 0.00 | 44 | 1019.0 |
| 20260905162009 | 71 | 264 | 31.0 | 34.0 | 0.00 | 0.00 | 0.00 | 44 | 1019.0 |
| 20260905161806 | 71 | 287 | 29.0 | 30.0 | 0.00 | 0.00 | 0.00 | 44 | 1019.0 |
| 20260905161606 | 71 | 264 | 17.0 | 18.0 | 0.00 | 0.00 | 0.00 | 44 | 1019.0 |
| 20260905161406 | 71 | 245 | 20.0 | 21.0 | 0.00 | 0.00 | 0.00 | 44 | 1019.0 |
| 20260905161207 | 71 | 229 | 25.0 | 30.0 | 0.00 | 0.00 | 0.00 | 43 | 1019.0 |
| 20260905161009 | 72 | 234 | 31.0 | 31.0 | 0.00 | 0.00 | 0.00 | 42 | 1019.0 |
| 20260905160807 | 72 | 259 | 28.0 | 31.0 | 0.00 | 0.00 | 0.00 | 42 | 1019.0 |
| 20260905160607 | 72 | 234 | 26.0 | 26.0 | 0.00 | 0.00 | 0.00 | 42 | 1019.0 |
| 20260905160405 | 72 | 270 | 14.0 | 14.0 | 0.00 | 0.00 | 0.00 | 43 | 1019.0 |
| 20260905160016 | 71 | 302 | 28.0 | 28.0 | 0.00 | 0.00 | 0.00 | 42 | 1019.0 |
| 20260905155806 | 72 | 282 | 26.0 | 30.0 | 0.00 | 0.00 | 0.00 | 42 | 1019.0 |
| 20260905155605 | 71 | 228 | 33.0 | 38.0 | 0.00 | 0.00 | 0.00 | 42 | 1019.0 |
| 20260905155405 | 71 | 270 | 42.0 | 47.0 | 0.00 | 0.00 | 0.00 | 42 | 1019.0 |
| 20260905155205 | 71 | 294 | 42.0 | 47.0 | 0.00 | 0.00 | 0.00 | 42 | 1019.0 |
| 20260905154605 | 71 | 282 | 45.0 | 49.0 | 0.00 | 0.00 | 0.00 | 42 | 1019.0 |
| 20260905154406 | 71 | 264 | 21.0 | 22.0 | 0.00 | 0.00 | 0.00 | 42 | 1019.0 |
| 20260905154012 | 72 | 253 | 31.0 | 38.0 | 0.00 | 0.00 | 0.00 | 42 | 1019.0 |
| 20260905153805 | 71 | 284 | 21.0 | 22.0 | 0.00 | 0.00 | 0.00 | 42 | 1019.0 |
| 20260905153605 | 71 | 241 | 31.0 | 34.0 | 0.00 | 0.00 | 0.00 | 41 | 1019.0 |
| 20260905153404 | 70 | 240 | 21.0 | 22.0 | 0.00 | 0.00 | 0.00 | 42 | 1019.0 |
| 20260905153205 | 70 | 286 | 40.0 | 47.0 | 0.00 | 0.00 | 0.00 | 43 | 1019.0 |
| 20260905153011 | 70 | 242 | 31.0 | 32.0 | 0.00 | 0.00 | 0.00 | 43 | 1019.0 |
| 20260905152807 | 70 | 198 | 22.0 | 25.0 | 0.00 | 0.00 | 0.00 | 44 | 1019.0 |
| 20260905152606 | 70 | 294 | 30.0 | 32.0 | 0.00 | 0.00 | 0.00 | 44 | 1019.0 |
| 20260905152407 | 70 | 282 | 26.0 | 30.0 | 0.00 | 0.00 | 0.00 | 43 | 1019.0 |
| 20260905152204 | 70 | 289 | 30.0 | 31.0 | 0.00 | 0.00 | 0.00 | 43 | 1019.0 |
| 20260905152011 | 70 | 288 | 38.0 | 41.0 | 0.00 | 0.00 | 0.00 | 43 | 1019.0 |
| 20260905151807 | 70 | 295 | 31.0 | 32.0 | 0.00 | 0.00 | 0.00 | 41 | 1019.0 |
| 20260905151405 | 69 | 234 | 22.0 | 24.0 | 0.00 | 0.00 | 0.00 | 44 | 1019.0 |
| 20260905151205 | 70 | 252 | 30.0 | 31.0 | 0.00 | 0.00 | 0.00 | 43 | 1019.0 |
| 20260905151012 | 70 | 198 | 31.0 | 32.0 | 0.00 | 0.00 | 0.00 | 42 | 1019.0 |
| 20260905150606 | 69 | 276 | 24.0 | 26.0 | 0.00 | 0.00 | 0.00 | 45 | 1019.0 |
| 20260905150208 | 69 | 263 | 33.0 | 38.0 | 0.00 | 0.00 | 0.00 | 46 | 1019.0 |
| 20260905150015 | 70 | 253 | 23.0 | 25.0 | 0.00 | 0.00 | 0.00 | 45 | 1019.0 |
| 20260905145807 | 70 | 282 | 28.0 | 28.0 | 0.00 | 0.00 | 0.00 | 45 | 1019.0 |
| 20260905145608 | 69 | 270 | 31.0 | 32.0 | 0.00 | 0.00 | 0.00 | 45 | 1019.0 |
| 20260905145405 | 70 | 243 | 28.0 | 28.0 | 0.00 | 0.00 | 0.00 | 45 | 1019.0 |
| 20260905145205 | 70 | 235 | 30.0 | 31.0 | 0.00 | 0.00 | 0.00 | 43 | 1019.0 |
| 20260905145012 | 69 | 303 | 22.0 | 25.0 | 0.00 | 0.00 | 0.00 | 45 | 1019.0 |
| 20260905144804 | 69 | 220 | 31.0 | 31.0 | 0.00 | 0.00 | 0.00 | 44 | 1019.0 |
| 20260905144606 | 69 | 271 | 25.0 | 30.0 | 0.00 | 0.00 | 0.00 | 44 | 1019.0 |
| 20260905144406 | 69 | 222 | 23.0 | 25.0 | 0.00 | 0.00 | 0.00 | 44 | 1019.0 |
| 20260905144205 | 69 | 284 | 39.0 | 44.0 | 0.00 | 0.00 | 0.00 | 45 | 1019.0 |
| 20260905144009 | 69 | 288 | 24.0 | 28.0 | 0.00 | 0.00 | 0.00 | 44 | 1019.0 |
| 20260905143606 | 69 | 240 | 40.0 | 44.0 | 0.00 | 0.00 | 0.00 | 45 | 1019.0 |
| 20260905143405 | 69 | 234 | 20.0 | 22.0 | 0.00 | 0.00 | 0.00 | 45 | 1019.0 |
| 20260905143206 | 69 | 224 | 42.0 | 47.0 | 0.00 | 0.00 | 0.00 | 44 | 1019.0 |
| 20260905142807 | 70 | 271 | 30.0 | 31.0 | 0.00 | 0.00 | 0.00 | 44 | 1019.0 |
| 20260905142605 | 70 | 222 | 22.0 | 24.0 | 0.00 | 0.00 | 0.00 | 43 | 1019.0 |
| 20260905142405 | 70 | 228 | 41.0 | 44.0 | 0.00 | 0.00 | 0.00 | 42 | 1019.0 |
| 20260905142207 | 70 | 306 | 43.0 | 47.0 | 0.00 | 0.00 | 0.00 | 44 | 1019.0 |
| 20260905142008 | 70 | 186 | 21.0 | 22.0 | 0.00 | 0.00 | 0.00 | 44 | 1019.0 |
| 20260905141807 | 70 | 299 | 31.0 | 31.0 | 0.00 | 0.00 | 0.00 | 44 | 1019.0 |
| 20260905141607 | 70 | 271 | 32.0 | 34.0 | 0.00 | 0.00 | 0.00 | 44 | 1019.0 |
| 20260905141406 | 71 | 276 | 15.0 | 15.0 | 0.00 | 0.00 | 0.00 | 43 | 1019.0 |
| 20260905141207 | 70 | 235 | 26.0 | 30.0 | 0.00 | 0.00 | 0.00 | 44 | 1019.0 |
| 20260905141010 | 71 | 259 | 47.0 | 55.0 | 0.00 | 0.00 | 0.00 | 44 | 1019.0 |
| 20260905140808 | 72 | 276 | 49.0 | 56.0 | 0.00 | 0.00 | 0.00 | 42 | 1019.0 |
| 20260905140406 | 73 | 278 | 43.0 | 47.0 | 0.00 | 0.00 | 0.00 | 40 | 1019.0 |
| 20260905140016 | 73 | 288 | 53.0 | 59.0 | 0.00 | 0.00 | 0.00 | 39 | 1019.0 |
| 20260905135805 | 73 | 271 | 41.0 | 44.0 | 0.00 | 0.00 | 0.00 | 39 | 1019.0 |
| 20260905135605 | 72 | 266 | 59.0 | 63.0 | 0.00 | 0.00 | 0.00 | 40 | 1019.0 |
| 20260905135206 | 71 | 306 | 46.0 | 55.0 | 0.00 | 0.00 | 0.00 | 42 | 1019.0 |
| 20260905135011 | 71 | 287 | 39.0 | 46.0 | 0.00 | 0.00 | 0.00 | 44 | 1019.0 |
| 20260905134805 | 72 | 300 | 43.0 | 53.0 | 0.00 | 0.00 | 0.00 | 42 | 1019.0 |
| 20260905134607 | 72 | 282 | 43.0 | 47.0 | 0.00 | 0.00 | 0.00 | 43 | 1019.0 |
| 20260905134405 | 73 | 282 | 43.0 | 46.0 | 0.00 | 0.00 | 0.00 | 42 | 1019.0 |
| 20260905134205 | 73 | 264 | 38.0 | 44.0 | 0.00 | 0.00 | 0.00 | 41 | 1019.0 |
| 20260905134009 | 72 | 291 | 28.0 | 31.0 | 0.00 | 0.00 | 0.00 | 42 | 1019.0 |
| 20260905133807 | 73 | 241 | 55.0 | 65.0 | 0.00 | 0.00 | 0.00 | 43 | 1019.0 |
| 20260905133605 | 73 | 232 | 17.0 | 18.0 | 0.00 | 0.00 | 0.00 | 41 | 1019.0 |
| 20260905133423 | 73 | 300 | 47.0 | 54.0 | 0.00 | 0.00 | 0.00 | 42 | 1019.0 |
| 20260905133205 | 73 | 270 | 43.0 | 47.0 | 0.00 | 0.00 | 0.00 | 40 | 1019.0 |
| 20260905133012 | 73 | 288 | 47.0 | 54.0 | 0.00 | 0.00 | 0.00 | 40 | 1019.0 |
| 20260905132805 | 73 | 239 | 23.0 | 25.0 | 0.00 | 0.00 | 0.00 | 41 | 1019.0 |
| 20260905132605 | 73 | 216 | 28.0 | 31.0 | 0.00 | 0.00 | 0.00 | 41 | 1019.0 |
| 20260905132504 | 73 | 212 | 23.0 | 26.0 | 0.00 | 0.00 | 0.00 | 41 | 1019.0 |
| 20260905131807 | 73 | 203 | 24.0 | 28.0 | 0.00 | 0.00 | 0.00 | 41 | 1019.0 |
| 20260905131008 | 72 | 280 | 42.0 | 54.0 | 0.00 | 0.00 | 0.00 | 41 | 1019.0 |
| 20260905130806 | 72 | 306 | 49.0 | 57.0 | 0.00 | 0.00 | 0.00 | 41 | 1019.0 |
| 20260905130607 | 72 | 264 | 42.0 | 46.0 | 0.00 | 0.00 | 0.00 | 43 | 1019.0 |
| 20260905130204 | 71 | 281 | 33.0 | 38.0 | 0.00 | 0.00 | 0.00 | 46 | 1019.0 |
| 20260905130019 | 71 | 282 | 25.0 | 28.0 | 0.00 | 0.00 | 0.00 | 46 | 1019.0 |
| 20260905125607 | 73 | 43 | 28.0 | 31.0 | 0.00 | 0.00 | 0.00 | 43 | 1019.0 |
| 20260905125406 | 73 | 304 | 28.0 | 31.0 | 0.00 | 0.00 | 0.00 | 42 | 1019.0 |
| 20260905125205 | 72 | 254 | 40.0 | 44.0 | 0.00 | 0.00 | 0.00 | 42 | 1019.0 |
| 20260905125007 | 72 | 282 | 47.0 | 55.0 | 0.00 | 0.00 | 0.00 | 43 | 1019.0 |
| 20260905124405 | 71 | 264 | 62.0 | 69.0 | 0.00 | 0.00 | 0.00 | 44 | 1019.0 |
| 20260905124205 | 73 | 270 | 28.0 | 31.0 | 0.00 | 0.00 | 0.00 | 41 | 1019.0 |
| 20260905124010 | 73 | 196 | 30.0 | 31.0 | 0.00 | 0.00 | 0.00 | 42 | 1019.0 |
| 20260905123805 | 72 | 221 | 24.0 | 28.0 | 0.00 | 0.00 | 0.00 | 42 | 1019.0 |
| 20260905123606 | 72 | 186 | 28.0 | 28.0 | 0.00 | 0.00 | 0.00 | 43 | 1019.0 |
| 20260905123405 | 72 | 246 | 24.0 | 26.0 | 0.00 | 0.00 | 0.00 | 42 | 1019.0 |
| 20260905123012 | 71 | 303 | 20.0 | 21.0 | 0.00 | 0.00 | 0.00 | 44 | 1019.0 |
| 20260905122805 | 71 | 288 | 42.0 | 46.0 | 0.00 | 0.00 | 0.00 | 44 | 1019.0 |
| 20260905122607 | 71 | 287 | 38.0 | 44.0 | 0.00 | 0.00 | 0.00 | 44 | 1019.0 |
| 20260905122206 | 71 | 228 | 25.0 | 28.0 | 0.00 | 0.00 | 0.00 | 45 | 1019.0 |
| 20260905122010 | 71 | 253 | 43.0 | 50.0 | 0.00 | 0.00 | 0.00 | 44 | 1019.0 |
| 20260905121805 | 71 | 289 | 34.0 | 39.0 | 0.00 | 0.00 | 0.00 | 46 | 1019.0 |
| 20260905121606 | 71 | 248 | 31.0 | 32.0 | 0.00 | 0.00 | 0.00 | 45 | 1019.0 |
| 20260905121405 | 71 | 258 | 32.0 | 34.0 | 0.00 | 0.00 | 0.00 | 45 | 1019.0 |
| 20260905121205 | 71 | 281 | 47.0 | 54.0 | 0.00 | 0.00 | 0.00 | 44 | 1019.0 |
| 20260905121008 | 71 | 293 | 67.0 | 72.0 | 0.00 | 0.00 | 0.00 | 44 | 1019.0 |
| 20260905120605 | 70 | 270 | 43.0 | 46.0 | 0.00 | 0.00 | 0.00 | 44 | 1019.0 |
| 20260905120405 | 69 | 254 | 39.0 | 41.0 | 0.00 | 0.00 | 0.00 | 48 | 1019.0 |
| 20260905120206 | 71 | 289 | 59.0 | 61.0 | 0.00 | 0.00 | 0.00 | 46 | 1019.0 |
| 20260905120018 | 73 | 290 | 19.0 | 20.0 | 0.00 | 0.00 | 0.00 | 44 | 1019.0 |
| 20260905115807 | 73 | 236 | 28.0 | 31.0 | 0.00 | 0.00 | 0.00 | 44 | 1019.0 |
| 20260905115606 | 72 | 253 | 25.0 | 28.0 | 0.00 | 0.00 | 0.00 | 47 | 1019.0 |
| 20260905115406 | 71 | 245 | 44.0 | 53.0 | 0.00 | 0.00 | 0.00 | 46 | 1019.0 |
| 20260905115204 | 70 | 222 | 23.0 | 26.0 | 0.00 | 0.00 | 0.00 | 45 | 1019.0 |
| 20260905114807 | 69 | 270 | 40.0 | 43.0 | 0.00 | 0.00 | 0.00 | 48 | 1019.0 |
| 20260905114605 | 69 | 295 | 24.0 | 26.0 | 0.00 | 0.00 | 0.00 | 48 | 1019.0 |
| 20260905114405 | 70 | 289 | 25.0 | 30.0 | 0.00 | 0.00 | 0.00 | 47 | 1019.0 |
| 20260905114206 | 71 | 228 | 40.0 | 43.0 | 0.00 | 0.00 | 0.00 | 47 | 1019.0 |
| 20260905114012 | 71 | 299 | 23.0 | 26.0 | 0.00 | 0.00 | 0.00 | 47 | 1019.0 |
| 20260905113607 | 70 | 324 | 43.0 | 46.0 | 0.00 | 0.00 | 0.00 | 47 | 1019.0 |
| 20260905113405 | 70 | 336 | 31.0 | 32.0 | 0.00 | 0.00 | 0.00 | 47 | 1019.0 |
| 20260905113205 | 70 | 275 | 31.0 | 31.0 | 0.00 | 0.00 | 0.00 | 48 | 1019.0 |
| 20260905113012 | 69 | 247 | 38.0 | 41.0 | 0.00 | 0.00 | 0.00 | 46 | 1019.0 |
| 20260905112804 | 69 | 286 | 32.0 | 34.0 | 0.00 | 0.00 | 0.00 | 48 | 1019.0 |
| 20260905112607 | 69 | 168 | 25.0 | 28.0 | 0.00 | 0.00 | 0.00 | 48 | 1019.0 |
| 20260905112407 | 69 | 259 | 38.0 | 41.0 | 0.00 | 0.00 | 0.00 | 49 | 1020.0 |
| 20260905112206 | 69 | 252 | 39.0 | 43.0 | 0.00 | 0.00 | 0.00 | 49 | 1020.0 |
| 20260905112010 | 69 | 302 | 28.0 | 31.0 | 0.00 | 0.00 | 0.00 | 52 | 1019.0 |
| 20260905111806 | 70 | 289 | 31.0 | 32.0 | 0.00 | 0.00 | 0.00 | 50 | 1019.0 |
| 20260905111606 | 70 | 312 | 24.0 | 26.0 | 0.00 | 0.00 | 0.00 | 48 | 1019.0 |
| 20260905111407 | 69 | 266 | 20.0 | 22.0 | 0.00 | 0.00 | 0.00 | 51 | 1020.0 |
| 20260905111205 | 69 | 242 | 32.0 | 34.0 | 0.00 | 0.00 | 0.00 | 51 | 1020.0 |
| 20260905111009 | 69 | 282 | 22.0 | 23.0 | 0.00 | 0.00 | 0.00 | 49 | 1019.0 |
| 20260905110806 | 69 | 249 | 22.0 | 23.0 | 0.00 | 0.00 | 0.00 | 53 | 1019.0 |
| 20260905110605 | 69 | 294 | 28.0 | 31.0 | 0.00 | 0.00 | 0.00 | 51 | 1019.0 |
| 20260905110405 | 70 | 283 | 15.0 | 15.0 | 0.00 | 0.00 | 0.00 | 50 | 1019.0 |
| 20260905110206 | 70 | 229 | 19.0 | 21.0 | 0.00 | 0.00 | 0.00 | 52 | 1019.0 |
| 20260905110021 | 70 | 254 | 30.0 | 31.0 | 0.00 | 0.00 | 0.00 | 52 | 1020.0 |
| 20260905105606 | 70 | 241 | 26.0 | 30.0 | 0.00 | 0.00 | 0.00 | 54 | 1020.0 |
| 20260905105205 | 69 | 218 | 21.0 | 22.0 | 0.00 | 0.00 | 0.00 | 51 | 1020.0 |
| 20260905104805 | 69 | 276 | 14.0 | 14.0 | 0.00 | 0.00 | 0.00 | 54 | 1019.0 |
| 20260905104607 | 68 | 327 | 24.0 | 26.0 | 0.00 | 0.00 | 0.00 | 52 | 1019.0 |
| 20260905104405 | 68 | 222 | 22.0 | 24.0 | 0.00 | 0.00 | 0.00 | 55 | 1019.0 |
| 20260905104207 | 68 | 295 | 20.0 | 22.0 | 0.00 | 0.00 | 0.00 | 56 | 1019.0 |
| 20260905104009 | 68 | 277 | 21.0 | 22.0 | 0.00 | 0.00 | 0.00 | 54 | 1019.0 |
| 20260905103805 | 69 | 282 | 33.0 | 38.0 | 0.00 | 0.00 | 0.00 | 53 | 1019.0 |
| 20260905103605 | 69 | 268 | 29.0 | 31.0 | 0.00 | 0.00 | 0.00 | 53 | 1019.0 |
| 20260905103406 | 70 | 246 | 24.0 | 28.0 | 0.00 | 0.00 | 0.00 | 54 | 1019.0 |
| 20260905103206 | 70 | 229 | 23.0 | 25.0 | 0.00 | 0.00 | 0.00 | 53 | 1019.0 |
| 20260905102807 | 69 | 256 | 15.0 | 17.0 | 0.00 | 0.00 | 0.00 | 54 | 1020.0 |
| 20260905102407 | 68 | 230 | 21.0 | 22.0 | 0.00 | 0.00 | 0.00 | 57 | 1019.0 |
| 20260905102012 | 67 | 222 | 22.0 | 24.0 | 0.00 | 0.00 | 0.00 | 60 | 1019.0 |
| 20260905101806 | 69 | 246 | 22.0 | 25.0 | 0.00 | 0.00 | 0.00 | 56 | 1019.0 |
| 20260905101606 | 69 | 218 | 28.0 | 31.0 | 0.00 | 0.00 | 0.00 | 60 | 1019.0 |
| 20260905101407 | 69 | 228 | 38.0 | 41.0 | 0.00 | 0.00 | 0.00 | 58 | 1020.0 |
| 20260905101207 | 68 | 210 | 26.0 | 26.0 | 0.00 | 0.00 | 0.00 | 58 | 1020.0 |
| 20260905101008 | 68 | 252 | 24.0 | 26.0 | 0.00 | 0.00 | 0.00 | 60 | 1020.0 |
| 20260905100805 | 69 | 286 | 23.0 | 25.0 | 0.00 | 0.00 | 0.00 | 57 | 1020.0 |
| 20260905100606 | 68 | 257 | 18.0 | 19.0 | 0.00 | 0.00 | 0.00 | 57 | 1020.0 |
| 20260905100407 | 68 | 245 | 14.0 | 14.0 | 0.00 | 0.00 | 0.00 | 60 | 1020.0 |
| 20260905100205 | 69 | 278 | 31.0 | 32.0 | 0.00 | 0.00 | 0.00 | 60 | 1020.0 |
| 20260905100029 | 69 | 190 | 31.0 | 32.0 | 0.00 | 0.00 | 0.00 | 58 | 1020.0 |
| 20260905095806 | 69 | 162 | 31.0 | 34.0 | 0.00 | 0.00 | 0.00 | 58 | 1020.0 |
| 20260905095606 | 69 | 217 | 23.0 | 25.0 | 0.00 | 0.00 | 0.00 | 58 | 1020.0 |
| 20260905095406 | 68 | 216 | 26.0 | 31.0 | 0.00 | 0.00 | 0.00 | 59 | 1020.0 |
| 20260905095010 | 68 | 264 | 23.0 | 25.0 | 0.00 | 0.00 | 0.00 | 61 | 1020.0 |
| 20260905094606 | 69 | 214 | 22.0 | 24.0 | 0.00 | 0.00 | 0.00 | 59 | 1020.0 |
| 20260905094406 | 69 | 184 | 34.0 | 39.0 | 0.00 | 0.00 | 0.00 | 59 | 1020.0 |
| 20260905094216 | 69 | 210 | 23.0 | 26.0 | 0.00 | 0.00 | 0.00 | 59 | 1020.0 |
| 20260905094012 | 69 | 269 | 22.0 | 24.0 | 0.00 | 0.00 | 0.00 | 59 | 1020.0 |
| 20260905093805 | 69 | 252 | 14.0 | 14.0 | 0.00 | 0.00 | 0.00 | 61 | 1020.0 |
| 20260905093606 | 68 | 262 | 14.0 | 14.0 | 0.00 | 0.00 | 0.00 | 60 | 1020.0 |
| 20260905093405 | 68 | 190 | 19.0 | 20.0 | 0.00 | 0.00 | 0.00 | 62 | 1020.0 |
| 20260905093206 | 68 | 212 | 28.0 | 28.0 | 0.00 | 0.00 | 0.00 | 62 | 1020.0 |
| 20260905093016 | 68 | 234 | 33.0 | 38.0 | 0.00 | 0.00 | 0.00 | 63 | 1020.0 |
| 20260905092806 | 67 | 246 | 16.0 | 17.0 | 0.00 | 0.00 | 0.00 | 61 | 1020.0 |
| 20260905092606 | 67 | 217 | 22.0 | 23.0 | 0.00 | 0.00 | 0.00 | 62 | 1020.0 |
| 20260905092205 | 66 | 284 | 18.0 | 19.0 | 0.00 | 0.00 | 0.00 | 66 | 1020.0 |
| 20260905092011 | 66 | 270 | 30.0 | 31.0 | 0.00 | 0.00 | 0.00 | 64 | 1020.0 |
| 20260905091606 | 66 | 264 | 22.0 | 23.0 | 0.00 | 0.00 | 0.00 | 67 | 1020.0 |
| 20260905091011 | 67 | 234 | 21.0 | 22.0 | 0.00 | 0.00 | 0.00 | 68 | 1020.0 |
| 20260905090805 | 66 | 258 | 30.0 | 32.0 | 0.00 | 0.00 | 0.00 | 69 | 1020.0 |
| 20260905090604 | 65 | 253 | 30.0 | 32.0 | 0.00 | 0.00 | 0.00 | 69 | 1020.0 |
| 20260905090407 | 65 | 204 | 34.0 | 44.0 | 0.00 | 0.00 | 0.00 | 70 | 1020.0 |
| 20260905090206 | 64 | 233 | 26.0 | 30.0 | 0.00 | 0.00 | 0.00 | 72 | 1020.0 |
| 20260905090015 | 64 | 218 | 24.0 | 26.0 | 0.00 | 0.00 | 0.00 | 73 | 1020.0 |
| 20260905085807 | 64 | 219 | 30.0 | 31.0 | 0.00 | 0.00 | 0.00 | 76 | 1020.0 |
| 20260905085607 | 65 | 270 | 23.0 | 26.0 | 0.00 | 0.00 | 0.00 | 71 | 1020.0 |
| 20260905085407 | 64 | 223 | 34.0 | 43.0 | 0.00 | 0.00 | 0.00 | 74 | 1020.0 |
| 20260905085205 | 64 | 186 | 20.0 | 22.0 | 0.00 | 0.00 | 0.00 | 76 | 1020.0 |
| 20260905085011 | 64 | 174 | 22.0 | 23.0 | 0.00 | 0.00 | 0.00 | 76 | 1020.0 |
| 20260905084805 | 64 | 198 | 29.0 | 30.0 | 0.00 | 0.00 | 0.00 | 75 | 1020.0 |
| 20260905084605 | 64 | 192 | 26.0 | 26.0 | 0.00 | 0.00 | 0.00 | 76 | 1020.0 |
| 20260905084206 | 63 | 198 | 18.0 | 18.0 | 0.00 | 0.00 | 0.00 | 78 | 1020.0 |
| 20260905084008 | 63 | 192 | 18.0 | 19.0 | 0.00 | 0.00 | 0.00 | 78 | 1020.0 |
| 20260905083806 | 63 | 204 | 15.0 | 17.0 | 0.00 | 0.00 | 0.00 | 80 | 1020.0 |
| 20260905083406 | 62 | 216 | 20.0 | 22.0 | 0.00 | 0.00 | 0.00 | 79 | 1020.0 |
| 20260905083206 | 61 | 258 | 17.0 | 18.0 | 0.00 | 0.00 | 0.00 | 80 | 1020.0 |
| 20260905083012 | 60 | 202 | 14.0 | 14.0 | 0.00 | 0.00 | 0.00 | 81 | 1020.0 |
| 20260905082806 | 60 | 222 | 17.0 | 18.0 | 0.00 | 0.00 | 0.00 | 83 | 1020.0 |
| 20260905082605 | 60 | 192 | 17.0 | 18.0 | 0.00 | 0.00 | 0.00 | 83 | 1020.0 |
| 20260905082405 | 60 | 216 | 14.0 | 14.0 | 0.00 | 0.00 | 0.00 | 81 | 1020.0 |
| 20260905082205 | 60 | 210 | 17.0 | 18.0 | 0.00 | 0.00 | 0.00 | 82 | 1020.0 |
| 20260905082010 | 60 | 192 | 19.0 | 20.0 | 0.00 | 0.00 | 0.00 | 82 | 1020.0 |
| 20260905081806 | 60 | 204 | 17.0 | 18.0 | 0.00 | 0.00 | 0.00 | 82 | 1020.0 |
| 20260905081205 | 60 | 228 | 14.0 | 14.0 | 0.00 | 0.00 | 0.00 | 82 | 1020.0 |
| 20260905081012 | 60 | 228 | 15.0 | 15.0 | 0.00 | 0.00 | 0.00 | 82 | 1019.0 |
| 20260905080806 | 60 | 224 | 14.0 | 14.0 | 0.00 | 0.00 | 0.00 | 83 | 1019.0 |
| 20260905080606 | 60 | 228 | 20.0 | 22.0 | 0.00 | 0.00 | 0.00 | 82 | 1019.0 |
| 20260905080405 | 60 | 222 | 16.0 | 17.0 | 0.00 | 0.00 | 0.00 | 83 | 1019.0 |
| 20260905080205 | 60 | 252 | 9.0 | 9.0 | 0.00 | 0.00 | 0.00 | 82 | 1019.0 |
| 20260905075807 | 59 | 246 | 9.0 | 9.0 | 0.00 | 0.00 | 0.00 | 82 | 1019.0 |
| 20260905075606 | 59 | 210 | 14.0 | 14.0 | 0.00 | 0.00 | 0.00 | 83 | 1019.0 |
| 20260905075405 | 59 | 241 | 8.0 | 8.0 | 0.00 | 0.00 | 0.00 | 83 | 1019.0 |
| 20260905075221 | 59 | 216 | 9.0 | 9.0 | 0.00 | 0.00 | 0.00 | 83 | 1019.0 |
| 20260905075008 | 59 | 192 | 14.0 | 14.0 | 0.00 | 0.00 | 0.00 | 84 | 1019.0 |
| 20260905074805 | 58 | 224 | 9.0 | 9.0 | 0.00 | 0.00 | 0.00 | 85 | 1019.0 |
| 20260905074607 | 58 | 230 | 14.0 | 14.0 | 0.00 | 0.00 | 0.00 | 84 | 1019.0 |
| 20260905074405 | 58 | 234 | 9.0 | 9.0 | 0.00 | 0.00 | 0.00 | 84 | 1019.0 |
| 20260905074207 | 58 | 222 | 9.0 | 9.0 | 0.00 | 0.00 | 0.00 | 86 | 1019.0 |
| 20260905074010 | 58 | 198 | 8.0 | 8.0 | 0.00 | 0.00 | 0.00 | 85 | 1019.0 |
| 20260905073806 | 58 | 228 | 6.0 | 6.0 | 0.00 | 0.00 | 0.00 | 85 | 1019.0 |
| 20260905073606 | 58 | 306 | 8.0 | 8.0 | 0.00 | 0.00 | 0.00 | 85 | 1019.0 |
| 20260905073407 | 58 | 270 | 14.0 | 14.0 | 0.00 | 0.00 | 0.00 | 86 | 1019.0 |
| 20260905073205 | 58 | 252 | 9.0 | 9.0 | 0.00 | 0.00 | 0.00 | 85 | 1019.0 |
| 20260905073014 | 58 | 264 | 8.0 | 8.0 | 0.00 | 0.00 | 0.00 | 86 | 1019.0 |
| 20260905072807 | 58 | 282 | 9.0 | 9.0 | 0.00 | 0.00 | 0.00 | 86 | 1019.0 |
| 20260905072606 | 58 | 270 | 9.0 | 9.0 | 0.00 | 0.00 | 0.00 | 88 | 1019.0 |
| 20260905072407 | 58 | 287 | 8.0 | 8.0 | 0.00 | 0.00 | 0.00 | 88 | 1019.0 |
| 20260905072205 | 58 | 282 | 16.0 | 17.0 | 0.00 | 0.00 | 0.00 | 87 | 1019.0 |
| 20260905071805 | 57 | 276 | 17.0 | 18.0 | 0.00 | 0.00 | 0.00 | 87 | 1018.0 |
| 20260905071607 | 57 | 298 | 16.0 | 17.0 | 0.00 | 0.00 | 0.00 | 88 | 1018.0 |
| 20260905071412 | 57 | 298 | 9.0 | 9.0 | 0.00 | 0.00 | 0.00 | 87 | 1018.0 |
| 20260905071207 | 57 | 288 | 14.0 | 14.0 | 0.00 | 0.00 | 0.00 | 89 | 1018.0 |
| 20260905071011 | 57 | 286 | 16.0 | 17.0 | 0.00 | 0.00 | 0.00 | 88 | 1018.0 |
| 20260905070606 | 57 | 276 | 22.0 | 23.0 | 0.00 | 0.00 | 0.00 | 87 | 1018.0 |
| 20260905070407 | 57 | 275 | 18.0 | 19.0 | 0.00 | 0.00 | 0.00 | 89 | 1018.0 |
| 20260905070016 | 57 | 268 | 25.0 | 28.0 | 0.00 | 0.00 | 0.00 | 87 | 1018.0 |
| 20260905065822 | 57 | 273 | 9.0 | 9.0 | 0.00 | 0.00 | 0.00 | 88 | 1018.0 |
| 20260905065405 | 57 | 234 | 14.0 | 14.0 | 0.00 | 0.00 | 0.00 | 89 | 1018.0 |
| 20260905065206 | 57 | 222 | 18.0 | 19.0 | 0.00 | 0.00 | 0.00 | 88 | 1018.0 |
| 20260905065008 | 57 | 198 | 16.0 | 17.0 | 0.00 | 0.00 | 0.00 | 89 | 1018.0 |
| 20260905064807 | 57 | 204 | 15.0 | 15.0 | 0.00 | 0.00 | 0.00 | 89 | 1018.0 |
| 20260905064607 | 56 | 228 | 23.0 | 25.0 | 0.00 | 0.00 | 0.00 | 90 | 1018.0 |
| 20260905064405 | 56 | 204 | 8.0 | 8.0 | 0.00 | 0.00 | 0.00 | 90 | 1017.0 |
| 20260905064205 | 56 | 180 | 9.0 | 9.0 | 0.00 | 0.00 | 0.00 | 90 | 1017.0 |
| 20260905064009 | 56 | 180 | 21.0 | 22.0 | 0.00 | 0.00 | 0.00 | 91 | 1018.0 |
| 20260905063805 | 56 | 180 | 16.0 | 17.0 | 0.00 | 0.00 | 0.00 | 89 | 1018.0 |
| 20260905063606 | 56 | 168 | 14.0 | 14.0 | 0.00 | 0.00 | 0.00 | 90 | 1018.0 |
| 20260905063012 | 56 | 204 | 14.0 | 14.0 | 0.00 | 0.00 | 0.00 | 91 | 1018.0 |
| 20260905062807 | 56 | 234 | 22.0 | 25.0 | 0.00 | 0.00 | 0.00 | 92 | 1018.0 |
| 20260905062606 | 56 | 216 | 20.0 | 21.0 | 0.00 | 0.00 | 0.00 | 92 | 1018.0 |
| 20260905062406 | 56 | 249 | 14.0 | 14.0 | 0.00 | 0.00 | 0.00 | 91 | 1019.0 |
| 20260905062205 | 56 | 204 | 22.0 | 24.0 | 0.00 | 0.00 | 0.00 | 90 | 1019.0 |
| 20260905062012 | 56 | 234 | 15.0 | 15.0 | 0.00 | 0.00 | 0.00 | 90 | 1019.0 |
| 20260905061807 | 56 | 224 | 15.0 | 15.0 | 0.00 | 0.00 | 0.00 | 90 | 1019.0 |
| 20260905061205 | 57 | 228 | 8.0 | 8.0 | 0.00 | 0.00 | 0.00 | 90 | 1019.0 |
| 20260905060807 | 57 | 210 | 9.0 | 9.0 | 0.00 | 0.00 | 0.00 | 89 | 1019.0 |
| 20260905060607 | 57 | 228 | 8.0 | 8.0 | 0.00 | 0.00 | 0.00 | 88 | 1019.0 |
| 20260905060206 | 57 | 204 | 17.0 | 18.0 | 0.00 | 0.00 | 0.00 | 88 | 1019.0 |
| 20260905060020 | 57 | 252 | 18.0 | 19.0 | 0.00 | 0.00 | 0.00 | 88 | 1019.0 |
| 20260905055607 | 57 | 258 | 9.0 | 9.0 | 0.00 | 0.00 | 0.00 | 87 | 1019.0 |
| 20260905055205 | 57 | 216 | 14.0 | 14.0 | 0.00 | 0.00 | 0.00 | 87 | 1019.0 |
| 20260905055013 | 57 | 279 | 14.0 | 14.0 | 0.00 | 0.00 | 0.00 | 87 | 1019.0 |
| 20260905054807 | 57 | 264 | 8.0 | 8.0 | 0.00 | 0.00 | 0.00 | 88 | 1019.0 |
| 20260905054607 | 57 | 240 | 14.0 | 14.0 | 0.00 | 0.00 | 0.00 | 88 | 1019.0 |
| 20260905053807 | 57 | 306 | 18.0 | 19.0 | 0.00 | 0.00 | 0.00 | 86 | 1019.0 |
| 20260905053607 | 57 | 282 | 21.0 | 22.0 | 0.00 | 0.00 | 0.00 | 86 | 1019.0 |
| 20260905053404 | 57 | 288 | 19.0 | 20.0 | 0.00 | 0.00 | 0.00 | 85 | 1019.0 |
| 20260905053206 | 57 | 288 | 20.0 | 22.0 | 0.00 | 0.00 | 0.00 | 85 | 1019.0 |
| 20260905053013 | 57 | 270 | 21.0 | 22.0 | 0.00 | 0.00 | 0.00 | 84 | 1019.0 |
| 20260905052606 | 58 | 292 | 18.0 | 19.0 | 0.00 | 0.00 | 0.00 | 83 | 1019.0 |
| 20260905052405 | 58 | 288 | 16.0 | 17.0 | 0.00 | 0.00 | 0.00 | 83 | 1019.0 |
| 20260905052207 | 58 | 306 | 22.0 | 23.0 | 0.00 | 0.00 | 0.00 | 82 | 1019.0 |
| 20260905052011 | 58 | 288 | 17.0 | 18.0 | 0.00 | 0.00 | 0.00 | 83 | 1019.0 |
| 20260905051806 | 58 | 280 | 9.0 | 9.0 | 0.00 | 0.00 | 0.00 | 82 | 1019.0 |
| 20260905051605 | 58 | 303 | 17.0 | 18.0 | 0.00 | 0.00 | 0.00 | 82 | 1019.0 |
| 20260905051207 | 58 | 276 | 9.0 | 9.0 | 0.00 | 0.00 | 0.00 | 81 | 1018.0 |
| 20260905051008 | 58 | 263 | 9.0 | 9.0 | 0.00 | 0.00 | 0.00 | 81 | 1018.0 |
| 20260905050807 | 58 | 253 | 8.0 | 8.0 | 0.00 | 0.00 | 0.00 | 81 | 1018.0 |
| 20260905050606 | 58 | 258 | 6.0 | 6.0 | 0.00 | 0.00 | 0.00 | 82 | 1018.0 |
| 20260905050406 | 58 | 276 | 8.0 | 8.0 | 0.00 | 0.00 | 0.00 | 83 | 1018.0 |
| 20260905050205 | 58 | 279 | 8.0 | 8.0 | 0.00 | 0.00 | 0.00 | 83 | 1018.0 |
| 20260905050015 | 58 | 279 | 9.0 | 9.0 | 0.00 | 0.00 | 0.00 | 83 | 1018.0 |
| 20260905045806 | 58 | 288 | 16.0 | 17.0 | 0.00 | 0.00 | 0.00 | 83 | 1018.0 |
| 20260905045406 | 58 | 270 | 9.0 | 9.0 | 0.00 | 0.00 | 0.00 | 83 | 1018.0 |
| 20260905045011 | 58 | 281 | 15.0 | 17.0 | 0.00 | 0.00 | 0.00 | 81 | 1018.0 |
| 20260905044806 | 58 | 286 | 18.0 | 19.0 | 0.00 | 0.00 | 0.00 | 82 | 1018.0 |
| 20260905044607 | 58 | 270 | 21.0 | 22.0 | 0.00 | 0.00 | 0.00 | 83 | 1018.0 |
| 20260905044405 | 58 | 279 | 16.0 | 18.0 | 0.00 | 0.00 | 0.00 | 84 | 1018.0 |
| 20260905044011 | 58 | 282 | 15.0 | 17.0 | 0.00 | 0.00 | 0.00 | 83 | 1018.0 |
| 20260905043805 | 58 | 254 | 16.0 | 17.0 | 0.00 | 0.00 | 0.00 | 83 | 1018.0 |
| 20260905043607 | 58 | 299 | 14.0 | 14.0 | 0.00 | 0.00 | 0.00 | 83 | 1018.0 |
| 20260905043405 | 58 | 270 | 8.0 | 8.0 | 0.00 | 0.00 | 0.00 | 83 | 1018.0 |
| 20260905043207 | 58 | 216 | 9.0 | 9.0 | 0.00 | 0.00 | 0.00 | 83 | 1018.0 |
| 20260905043014 | 58 | 273 | 9.0 | 9.0 | 0.00 | 0.00 | 0.00 | 83 | 1018.0 |
| 20260905042805 | 58 | 247 | 17.0 | 18.0 | 0.00 | 0.00 | 0.00 | 83 | 1018.0 |
| 20260905042606 | 58 | 279 | 9.0 | 9.0 | 0.00 | 0.00 | 0.00 | 83 | 1018.0 |
| 20260905042205 | 58 | 276 | 21.0 | 22.0 | 0.00 | 0.00 | 0.00 | 81 | 1017.0 |
| 20260905042008 | 58 | 300 | 18.0 | 19.0 | 0.00 | 0.00 | 0.00 | 80 | 1017.0 |
| 20260905041807 | 58 | 287 | 16.0 | 17.0 | 0.00 | 0.00 | 0.00 | 79 | 1017.0 |
| 20260905041406 | 58 | 292 | 18.0 | 19.0 | 0.00 | 0.00 | 0.00 | 80 | 1017.0 |
| 20260905041205 | 58 | 306 | 20.0 | 22.0 | 0.00 | 0.00 | 0.00 | 79 | 1017.0 |
| 20260905041011 | 58 | 282 | 17.0 | 18.0 | 0.00 | 0.00 | 0.00 | 80 | 1017.0 |
| 20260905040405 | 58 | 285 | 20.0 | 22.0 | 0.00 | 0.00 | 0.00 | 78 | 1017.0 |
| 20260905040205 | 59 | 280 | 22.0 | 25.0 | 0.00 | 0.00 | 0.00 | 77 | 1017.0 |
| 20260905035805 | 59 | 285 | 20.0 | 22.0 | 0.00 | 0.00 | 0.00 | 76 | 1018.0 |
| 20260905035606 | 59 | 285 | 20.0 | 22.0 | 0.00 | 0.00 | 0.00 | 77 | 1018.0 |
| 20260905035404 | 59 | 288 | 30.0 | 31.0 | 0.00 | 0.00 | 0.00 | 77 | 1017.0 |
| 20260905035207 | 59 | 294 | 21.0 | 22.0 | 0.00 | 0.00 | 0.00 | 77 | 1017.0 |
| 20260905035008 | 59 | 288 | 28.0 | 28.0 | 0.00 | 0.00 | 0.00 | 79 | 1017.0 |
| 20260905034806 | 58 | 292 | 25.0 | 25.0 | 0.00 | 0.00 | 0.00 | 79 | 1017.0 |
| 20260905034605 | 58 | 282 | 28.0 | 28.0 | 0.00 | 0.00 | 0.00 | 79 | 1017.0 |
| 20260905034405 | 58 | 318 | 18.0 | 19.0 | 0.00 | 0.00 | 0.00 | 79 | 1017.0 |
| 20260905034207 | 58 | 304 | 20.0 | 22.0 | 0.00 | 0.00 | 0.00 | 82 | 1017.0 |
| 20260905034008 | 59 | 294 | 17.0 | 18.0 | 0.00 | 0.00 | 0.00 | 81 | 1017.0 |
| 20260905033807 | 59 | 279 | 26.0 | 26.0 | 0.00 | 0.00 | 0.00 | 77 | 1017.0 |
| 20260905033606 | 60 | 270 | 20.0 | 22.0 | 0.00 | 0.00 | 0.00 | 76 | 1017.0 |
| 20260905033405 | 62 | 294 | 33.0 | 38.0 | 0.00 | 0.00 | 0.00 | 68 | 1017.0 |
| 20260905033205 | 62 | 262 | 33.0 | 38.0 | 0.00 | 0.00 | 0.00 | 67 | 1017.0 |
| 20260905033012 | 62 | 285 | 31.0 | 32.0 | 0.00 | 0.00 | 0.00 | 67 | 1017.0 |
| 20260905032407 | 62 | 312 | 17.0 | 18.0 | 0.00 | 0.00 | 0.00 | 68 | 1016.0 |
| 20260905032205 | 62 | 306 | 26.0 | 26.0 | 0.00 | 0.00 | 0.00 | 68 | 1016.0 |
| 20260905031607 | 62 | 270 | 38.0 | 39.0 | 0.00 | 0.00 | 0.00 | 67 | 1016.0 |
| 20260905031404 | 62 | 294 | 17.0 | 18.0 | 0.00 | 0.00 | 0.00 | 68 | 1016.0 |
| 20260905031008 | 62 | 306 | 18.0 | 19.0 | 0.00 | 0.00 | 0.00 | 69 | 1016.0 |
| 20260905030804 | 62 | 300 | 21.0 | 22.0 | 0.00 | 0.00 | 0.00 | 70 | 1016.0 |
| 20260905030405 | 62 | 312 | 23.0 | 26.0 | 0.00 | 0.00 | 0.00 | 69 | 1016.0 |
| 20260905030018 | 63 | 276 | 31.0 | 31.0 | 0.00 | 0.00 | 0.00 | 67 | 1016.0 |
| 20260905025806 | 63 | 288 | 24.0 | 24.0 | 0.00 | 0.00 | 0.00 | 67 | 1016.0 |
| 20260905025648 | 63 | 282 | 34.0 | 41.0 | 0.00 | 0.00 | 0.00 | 66 | 1016.0 |
| 20260905025409 | 63 | 342 | 18.0 | 19.0 | 0.00 | 0.00 | 0.00 | 67 | 1017.0 |
| 20260905025205 | 63 | 288 | 28.0 | 31.0 | 0.00 | 0.00 | 0.00 | 66 | 1017.0 |
| 20260905025010 | 63 | 294 | 43.0 | 46.0 | 0.00 | 0.00 | 0.00 | 65 | 1016.0 |
| 20260905024823 | 63 | 312 | 30.0 | 31.0 | 0.00 | 0.00 | 0.00 | 65 | 1016.0 |
| 20260905024606 | 63 | 305 | 28.0 | 31.0 | 0.00 | 0.00 | 0.00 | 68 | 1016.0 |
| 20260905024407 | 63 | 282 | 19.0 | 20.0 | 0.00 | 0.00 | 0.00 | 68 | 1016.0 |
| 20260905024207 | 63 | 304 | 18.0 | 19.0 | 0.00 | 0.00 | 0.00 | 69 | 1016.0 |
| 20260905024008 | 63 | 4 | 19.0 | 20.0 | 0.00 | 0.00 | 0.00 | 69 | 1016.0 |
| 20260905023804 | 63 | 312 | 21.0 | 22.0 | 0.00 | 0.00 | 0.00 | 69 | 1016.0 |
| 20260905023605 | 63 | 294 | 18.0 | 19.0 | 0.00 | 0.00 | 0.00 | 69 | 1016.0 |
| 20260905023207 | 63 | 300 | 9.0 | 9.0 | 0.00 | 0.00 | 0.00 | 69 | 1016.0 |
| 20260905023014 | 63 | 337 | 15.0 | 17.0 | 0.00 | 0.00 | 0.00 | 70 | 1016.0 |
| 20260905022805 | 62 | 264 | 19.0 | 20.0 | 0.00 | 0.00 | 0.00 | 70 | 1016.0 |
| 20260905022605 | 62 | 312 | 22.0 | 24.0 | 0.00 | 0.00 | 0.00 | 70 | 1016.0 |
| 20260905022405 | 62 | 300 | 16.0 | 18.0 | 0.00 | 0.00 | 0.00 | 70 | 1016.0 |
| 20260905022205 | 62 | 324 | 21.0 | 22.0 | 0.00 | 0.00 | 0.00 | 70 | 1016.0 |
| 20260905021807 | 63 | 297 | 8.0 | 8.0 | 0.00 | 0.00 | 0.00 | 70 | 1016.0 |
| 20260905021607 | 63 | 282 | 17.0 | 18.0 | 0.00 | 0.00 | 0.00 | 69 | 1016.0 |
| 20260905021406 | 63 | 269 | 26.0 | 26.0 | 0.00 | 0.00 | 0.00 | 69 | 1016.0 |
| 20260905021205 | 63 | 330 | 19.0 | 20.0 | 0.00 | 0.00 | 0.00 | 69 | 1016.0 |
| 20260905021011 | 63 | 312 | 20.0 | 22.0 | 0.00 | 0.00 | 0.00 | 69 | 1015.0 |
| 20260905020807 | 63 | 12 | 22.0 | 25.0 | 0.00 | 0.00 | 0.00 | 69 | 1015.0 |
| 20260905020607 | 63 | 337 | 8.0 | 8.0 | 0.00 | 0.00 | 0.00 | 69 | 1015.0 |
| 20260905020407 | 63 | 48 | 18.0 | 19.0 | 0.00 | 0.00 | 0.00 | 69 | 1016.0 |
| 20260905020207 | 63 | 279 | 18.0 | 19.0 | 0.00 | 0.00 | 0.00 | 69 | 1016.0 |
| 20260905020019 | 63 | 282 | 31.0 | 31.0 | 0.00 | 0.00 | 0.00 | 68 | 1015.0 |
| 20260905015807 | 63 | 294 | 24.0 | 26.0 | 0.00 | 0.00 | 0.00 | 69 | 1015.0 |
| 20260905015606 | 63 | 304 | 16.0 | 17.0 | 0.00 | 0.00 | 0.00 | 68 | 1015.0 |
| 20260905015405 | 63 | 12 | 19.0 | 20.0 | 0.00 | 0.00 | 0.00 | 68 | 1016.0 |
| 20260905015011 | 64 | 296 | 20.0 | 22.0 | 0.00 | 0.00 | 0.00 | 68 | 1016.0 |
| 20260905014805 | 64 | 280 | 29.0 | 30.0 | 0.00 | 0.00 | 0.00 | 68 | 1016.0 |
| 20260905014605 | 64 | 306 | 19.0 | 20.0 | 0.00 | 0.00 | 0.00 | 68 | 1016.0 |
| 20260905014407 | 64 | 241 | 17.0 | 19.0 | 0.00 | 0.00 | 0.00 | 68 | 1016.0 |
| 20260905014207 | 64 | 312 | 22.0 | 25.0 | 0.00 | 0.00 | 0.00 | 67 | 1016.0 |
| 20260905013806 | 64 | 342 | 20.0 | 22.0 | 0.00 | 0.00 | 0.00 | 67 | 1015.0 |
| 20260905013606 | 64 | 276 | 22.0 | 23.0 | 0.00 | 0.00 | 0.00 | 67 | 1015.0 |
| 20260905013205 | 64 | 318 | 22.0 | 25.0 | 0.00 | 0.00 | 0.00 | 66 | 1015.0 |
| 20260905013016 | 64 | 17 | 20.0 | 22.0 | 0.00 | 0.00 | 0.00 | 67 | 1015.0 |
| 20260905012806 | 65 | 3 | 21.0 | 22.0 | 0.00 | 0.00 | 0.00 | 66 | 1015.0 |
| 20260905012605 | 65 | 254 | 22.0 | 25.0 | 0.00 | 0.00 | 0.00 | 66 | 1015.0 |
| 20260905012407 | 65 | 297 | 24.0 | 26.0 | 0.00 | 0.00 | 0.00 | 66 | 1016.0 |
| 20260905012009 | 65 | 24 | 26.0 | 31.0 | 0.00 | 0.00 | 0.00 | 66 | 1015.0 |
| 20260905011806 | 65 | 252 | 22.0 | 23.0 | 0.00 | 0.00 | 0.00 | 66 | 1015.0 |
| 20260905011605 | 65 | 0 | 22.0 | 24.0 | 0.00 | 0.00 | 0.00 | 66 | 1015.0 |
| 20260905011406 | 65 | 4 | 20.0 | 22.0 | 0.00 | 0.00 | 0.00 | 66 | 1015.0 |
| 20260905011208 | 66 | 348 | 22.0 | 25.0 | 0.00 | 0.00 | 0.00 | 66 | 1015.0 |
| 20260905011011 | 66 | 338 | 33.0 | 38.0 | 0.00 | 0.00 | 0.00 | 66 | 1015.0 |
| 20260905010829 | 66 | 249 | 26.0 | 26.0 | 0.00 | 0.00 | 0.00 | 67 | 1015.0 |
| 20260905010606 | 66 | 0 | 30.0 | 32.0 | 0.00 | 0.00 | 0.00 | 67 | 1015.0 |
| 20260905010407 | 66 | 258 | 20.0 | 22.0 | 0.00 | 0.00 | 0.00 | 67 | 1015.0 |
| 20260905010207 | 67 | 280 | 22.0 | 24.0 | 0.00 | 0.00 | 0.00 | 67 | 1015.0 |
| 20260905005805 | 67 | 18 | 33.0 | 38.0 | 0.00 | 0.00 | 0.00 | 66 | 1015.0 |
| 20260905005606 | 67 | 294 | 24.0 | 26.0 | 0.00 | 0.00 | 0.00 | 66 | 1015.0 |
| 20260905005404 | 68 | 330 | 34.0 | 44.0 | 0.00 | 0.00 | 0.00 | 64 | 1015.0 |
| 20260905005207 | 69 | 336 | 55.0 | 61.0 | 0.00 | 0.00 | 0.00 | 63 | 1015.0 |
| 20260905005008 | 70 | 332 | 26.0 | 31.0 | 0.00 | 0.00 | 0.00 | 62 | 1014.0 |
| 20260905004606 | 70 | 300 | 31.0 | 32.0 | 0.00 | 0.00 | 0.00 | 59 | 1014.0 |
| 20260905004407 | 70 | 281 | 69.0 | 74.0 | 0.00 | 0.00 | 0.00 | 58 | 1014.0 |
| 20260905004205 | 70 | 293 | 19.0 | 20.0 | 0.00 | 0.00 | 0.00 | 58 | 1014.0 |
| 20260905004010 | 70 | 284 | 22.0 | 24.0 | 0.00 | 0.00 | 0.00 | 58 | 1013.0 |
| 20260905003807 | 69 | 229 | 8.0 | 8.0 | 0.00 | 0.00 | 0.00 | 58 | 1013.0 |
| 20260905003405 | 69 | 192 | 7.0 | 7.0 | 0.00 | 0.00 | 0.00 | 58 | 1014.0 |
| 20260905003205 | 69 | 212 | 8.0 | 8.0 | 0.00 | 0.00 | 0.00 | 59 | 1014.0 |
| 20260905003020 | 70 | 212 | 7.0 | 7.0 | 0.00 | 0.00 | 0.00 | 58 | 1013.0 |
| 20260905002806 | 70 | 231 | 16.0 | 17.0 | 0.00 | 0.00 | 0.00 | 58 | 1013.0 |
| 20260905002606 | 70 | 212 | 6.0 | 6.0 | 0.00 | 0.00 | 0.00 | 58 | 1013.0 |
| 20260905002407 | 70 | 212 | 14.0 | 14.0 | 0.00 | 0.00 | 0.00 | 57 | 1013.0 |
| 20260905002207 | 70 | 218 | 8.0 | 8.0 | 0.00 | 0.00 | 0.00 | 57 | 1013.0 |
| 20260905002010 | 71 | 225 | 8.0 | 8.0 | 0.00 | 0.00 | 0.00 | 57 | 1013.0 |
| 20260905001805 | 71 | 178 | 9.0 | 9.0 | 0.00 | 0.00 | 0.00 | 56 | 1013.0 |
| 20260905001606 | 71 | 216 | 9.0 | 9.0 | 0.00 | 0.00 | 0.00 | 57 | 1013.0 |
| 20260905001406 | 71 | 212 | 9.0 | 9.0 | 0.00 | 0.00 | 0.00 | 56 | 1013.0 |
| 20260905001214 | 71 | 216 | 9.0 | 9.0 | 0.00 | 0.00 | 0.00 | 56 | 1013.0 |
| 20260905001014 | 71 | 225 | 15.0 | 15.0 | 0.00 | 0.00 | 0.00 | 56 | 1013.0 |
| 20260905000814 | 71 | 196 | 16.0 | 17.0 | 0.00 | 0.00 | 0.00 | 55 | 1013.0 |
| 20260905000606 | 71 | 204 | 20.0 | 22.0 | 0.00 | 0.00 | 0.00 | 55 | 1013.0 |
| 20260905000406 | 71 | 216 | 14.0 | 14.0 | 0.00 | 0.00 | 0.00 | 55 | 1013.0 |
| 20260905000207 | 71 | 202 | 8.0 | 8.0 | 0.00 | 0.00 | 0.00 | 56 | 1013.0 |
| 20260905000025 | 71 | 228 | 18.0 | 19.0 | 0.00 | 0.00 | 0.00 | 56 | 1013.0 |
| 20260904235807 | 71 | 246 | 15.0 | 17.0 | 0.00 | 0.00 | 0.00 | 56 | 1013.0 |
| 20260904235606 | 70 | 240 | 8.0 | 8.0 | 0.00 | 0.00 | 0.00 | 56 | 1013.0 |
| 20260904235405 | 70 | 212 | 14.0 | 14.0 | 0.00 | 0.00 | 0.00 | 57 | 1013.0 |
| 20260904235205 | 70 | 192 | 9.0 | 9.0 | 0.00 | 0.00 | 0.00 | 57 | 1013.0 |
| 20260904235010 | 70 | 219 | 14.0 | 14.0 | 0.00 | 0.00 | 0.00 | 58 | 1013.0 |
| 20260904234805 | 69 | 218 | 7.0 | 7.0 | 0.00 | 0.00 | 0.00 | 58 | 1013.0 |
| 20260904234607 | 69 | 198 | 14.0 | 14.0 | 0.00 | 0.00 | 0.00 | 59 | 1013.0 |
| 20260904234405 | 69 | 204 | 9.0 | 9.0 | 0.00 | 0.00 | 0.00 | 59 | 1013.0 |
| 20260904234206 | 69 | 204 | 8.0 | 8.0 | 0.00 | 0.00 | 0.00 | 59 | 1013.0 |
| 20260904234013 | 69 | 204 | 8.0 | 8.0 | 0.00 | 0.00 | 0.00 | 59 | 1013.0 |
| 20260904233807 | 69 | 162 | 7.0 | 7.0 | 0.00 | 0.00 | 0.00 | 59 | 1013.0 |
| 20260904233606 | 70 | 167 | 7.0 | 7.0 | 0.00 | 0.00 | 0.00 | 59 | 1013.0 |
| 20260904233406 | 70 | 162 | 8.0 | 8.0 | 0.00 | 0.00 | 0.00 | 59 | 1013.0 |
| 20260904233205 | 70 | 162 | 7.0 | 7.0 | 0.00 | 0.00 | 0.00 | 58 | 1013.0 |
| 20260904233016 | 70 | 162 | 9.0 | 9.0 | 0.00 | 0.00 | 0.00 | 58 | 1013.0 |
| 20260904232806 | 70 | 162 | 8.0 | 8.0 | 0.00 | 0.00 | 0.00 | 58 | 1013.0 |
| 20260904232606 | 70 | 180 | 9.0 | 9.0 | 0.00 | 0.00 | 0.00 | 57 | 1013.0 |
| 20260904232205 | 70 | 196 | 7.0 | 7.0 | 0.00 | 0.00 | 0.00 | 58 | 1013.0 |
| 20260904232010 | 70 | 196 | 8.0 | 8.0 | 0.00 | 0.00 | 0.00 | 58 | 1013.0 |
| 20260904231807 | 70 | 198 | 14.0 | 14.0 | 0.00 | 0.00 | 0.00 | 58 | 1013.0 |
| 20260904231405 | 70 | 186 | 8.0 | 8.0 | 0.00 | 0.00 | 0.00 | 59 | 1013.0 |
| 20260904231205 | 70 | 186 | 7.0 | 7.0 | 0.00 | 0.00 | 0.00 | 58 | 1013.0 |
| 20260904231009 | 70 | 186 | 7.0 | 7.0 | 0.00 | 0.00 | 0.00 | 59 | 1013.0 |
| 20260904230805 | 70 | 186 | 6.0 | 6.0 | 0.00 | 0.00 | 0.00 | 59 | 1013.0 |
| 20260904230406 | 71 | 186 | 8.0 | 8.0 | 0.00 | 0.00 | 0.00 | 57 | 1013.0 |
| 20260904230206 | 70 | 222 | 9.0 | 9.0 | 0.00 | 0.00 | 0.00 | 57 | 1013.0 |
| 20260904230019 | 70 | 214 | 8.0 | 8.0 | 0.00 | 0.00 | 0.00 | 57 | 1013.0 |
| 20260904225805 | 70 | 216 | 8.0 | 8.0 | 0.00 | 0.00 | 0.00 | 57 | 1013.0 |
| 20260904225407 | 70 | 212 | 14.0 | 14.0 | 0.00 | 0.00 | 0.00 | 58 | 1013.0 |
| 20260904225206 | 69 | 229 | 9.0 | 9.0 | 0.00 | 0.00 | 0.00 | 59 | 1013.0 |
| 20260904225007 | 69 | 223 | 15.0 | 17.0 | 0.00 | 0.00 | 0.00 | 59 | 1013.0 |
| 20260904224607 | 69 | 219 | 8.0 | 8.0 | 0.00 | 0.00 | 0.00 | 59 | 1013.0 |
| 20260904224405 | 69 | 228 | 8.0 | 8.0 | 0.00 | 0.00 | 0.00 | 59 | 1013.0 |
| 20260904224207 | 69 | 228 | 6.0 | 6.0 | 0.00 | 0.00 | 0.00 | 59 | 1013.0 |
| 20260904224010 | 69 | 228 | 6.0 | 6.0 | 0.00 | 0.00 | 0.00 | 60 | 1013.0 |
| 20260904223806 | 69 | 228 | 6.0 | 6.0 | 0.00 | 0.00 | 0.00 | 60 | 1013.0 |
| 20260904223606 | 69 | 228 | 6.0 | 6.0 | 0.00 | 0.00 | 0.00 | 61 | 1013.0 |
| 20260904223407 | 69 | 228 | 6.0 | 6.0 | 0.00 | 0.00 | 0.00 | 60 | 1013.0 |
| 20260904223207 | 69 | 228 | 5.0 | 5.0 | 0.00 | 0.00 | 0.00 | 60 | 1013.0 |
| 20260904223014 | 69 | 228 | 7.0 | 7.0 | 0.00 | 0.00 | 0.00 | 61 | 1013.0 |
| 20260904222805 | 69 | 228 | 6.0 | 6.0 | 0.00 | 0.00 | 0.00 | 61 | 1013.0 |
| 20260904222607 | 69 | 228 | 6.0 | 6.0 | 0.00 | 0.00 | 0.00 | 61 | 1013.0 |
| 20260904222205 | 69 | 228 | 6.0 | 6.0 | 0.00 | 0.00 | 0.00 | 61 | 1013.0 |
| 20260904222010 | 69 | 228 | 6.0 | 6.0 | 0.00 | 0.00 | 0.00 | 61 | 1013.0 |
| 20260904221606 | 69 | 228 | 6.0 | 6.0 | 0.00 | 0.00 | 0.00 | 61 | 1013.0 |
| 20260904221206 | 69 | 228 | 6.0 | 6.0 | 0.00 | 0.00 | 0.00 | 61 | 1013.0 |
| 20260904220804 | 69 | 228 | 7.0 | 7.0 | 0.00 | 0.00 | 0.00 | 60 | 1013.0 |
| 20260904220406 | 69 | 228 | 5.0 | 5.0 | 0.00 | 0.00 | 0.00 | 60 | 1013.0 |
| 20260904220205 | 69 | 228 | 6.0 | 6.0 | 0.00 | 0.00 | 0.00 | 60 | 1013.0 |
| 20260904220025 | 69 | 228 | 5.0 | 5.0 | 0.00 | 0.00 | 0.00 | 60 | 1013.0 |
| 20260904215805 | 69 | 228 | 6.0 | 6.0 | 0.00 | 0.00 | 0.00 | 60 | 1013.0 |
| 20260904215605 | 69 | 228 | 8.0 | 8.0 | 0.00 | 0.00 | 0.00 | 60 | 1013.0 |
| 20260904215405 | 69 | 228 | 7.0 | 7.0 | 0.00 | 0.00 | 0.00 | 59 | 1013.0 |
| 20260904215207 | 69 | 228 | 7.0 | 7.0 | 0.00 | 0.00 | 0.00 | 59 | 1013.0 |
| 20260904215009 | 70 | 228 | 6.0 | 6.0 | 0.00 | 0.00 | 0.00 | 60 | 1013.0 |
| 20260904214606 | 70 | 228 | 6.0 | 6.0 | 0.00 | 0.00 | 0.00 | 58 | 1013.0 |
| 20260904214405 | 70 | 228 | 6.0 | 6.0 | 0.00 | 0.00 | 0.00 | 58 | 1013.0 |
| 20260904214205 | 70 | 228 | 7.0 | 7.0 | 0.00 | 0.00 | 0.00 | 58 | 1013.0 |
| 20260904214010 | 70 | 228 | 6.0 | 6.0 | 0.00 | 0.00 | 0.00 | 59 | 1012.0 |
| 20260904213806 | 70 | 228 | 6.0 | 6.0 | 0.00 | 0.00 | 0.00 | 58 | 1012.0 |
| 20260904213607 | 70 | 228 | 7.0 | 7.0 | 0.00 | 0.00 | 0.00 | 58 | 1012.0 |
| 20260904213206 | 70 | 228 | 5.0 | 5.0 | 0.00 | 0.00 | 0.00 | 58 | 1012.0 |
| 20260904212807 | 70 | 228 | 7.0 | 7.0 | 0.00 | 0.00 | 0.00 | 57 | 1013.0 |
| 20260904212606 | 70 | 228 | 7.0 | 7.0 | 0.00 | 0.00 | 0.00 | 57 | 1013.0 |
| 20260904212205 | 70 | 228 | 8.0 | 8.0 | 0.00 | 0.00 | 0.00 | 57 | 1013.0 |
| 20260904212008 | 71 | 228 | 9.0 | 9.0 | 0.00 | 0.00 | 0.00 | 56 | 1013.0 |
| 20260904211806 | 71 | 224 | 7.0 | 7.0 | 0.00 | 0.00 | 0.00 | 56 | 1013.0 |
| 20260904211606 | 71 | 224 | 7.0 | 7.0 | 0.00 | 0.00 | 0.00 | 56 | 1013.0 |
| 20260904211405 | 71 | 225 | 9.0 | 9.0 | 0.00 | 0.00 | 0.00 | 55 | 1013.0 |
| 20260904211206 | 71 | 229 | 6.0 | 6.0 | 0.00 | 0.00 | 0.00 | 56 | 1013.0 |
| 20260904211008 | 71 | 192 | 7.0 | 7.0 | 0.00 | 0.00 | 0.00 | 56 | 1013.0 |
| 20260904210805 | 71 | 228 | 7.0 | 7.0 | 0.00 | 0.00 | 0.00 | 56 | 1013.0 |
| 20260904210605 | 70 | 216 | 9.0 | 9.0 | 0.00 | 0.00 | 0.00 | 56 | 1013.0 |
| 20260904210405 | 70 | 216 | 9.0 | 9.0 | 0.00 | 0.00 | 0.00 | 56 | 1013.0 |
| 20260904210205 | 70 | 216 | 8.0 | 8.0 | 0.00 | 0.00 | 0.00 | 57 | 1013.0 |
| 20260904210016 | 70 | 217 | 8.0 | 8.0 | 0.00 | 0.00 | 0.00 | 57 | 1012.0 |
| 20260904205805 | 70 | 225 | 8.0 | 8.0 | 0.00 | 0.00 | 0.00 | 57 | 1012.0 |
| 20260904205605 | 70 | 225 | 9.0 | 9.0 | 0.00 | 0.00 | 0.00 | 58 | 1012.0 |
| 20260904205407 | 70 | 223 | 8.0 | 8.0 | 0.00 | 0.00 | 0.00 | 57 | 1013.0 |
| 20260904205206 | 70 | 223 | 8.0 | 8.0 | 0.00 | 0.00 | 0.00 | 58 | 1013.0 |
| 20260904205008 | 70 | 223 | 9.0 | 9.0 | 0.00 | 0.00 | 0.00 | 58 | 1013.0 |
| 20260904204806 | 70 | 184 | 8.0 | 8.0 | 0.00 | 0.00 | 0.00 | 57 | 1013.0 |
| 20260904204606 | 70 | 180 | 8.0 | 8.0 | 0.00 | 0.00 | 0.00 | 57 | 1013.0 |
| 20260904204404 | 69 | 162 | 8.0 | 8.0 | 0.00 | 0.00 | 0.00 | 57 | 1013.0 |
| 20260904204205 | 69 | 192 | 8.0 | 8.0 | 0.00 | 0.00 | 0.00 | 57 | 1013.0 |
| 20260904204008 | 69 | 180 | 8.0 | 8.0 | 0.00 | 0.00 | 0.00 | 58 | 1013.0 |
| 20260904203804 | 69 | 180 | 8.0 | 8.0 | 0.00 | 0.00 | 0.00 | 58 | 1013.0 |
| 20260904203605 | 69 | 180 | 8.0 | 8.0 | 0.00 | 0.00 | 0.00 | 59 | 1013.0 |
| 20260904203405 | 69 | 180 | 7.0 | 7.0 | 0.00 | 0.00 | 0.00 | 58 | 1013.0 |
| 20260904203207 | 69 | 180 | 8.0 | 8.0 | 0.00 | 0.00 | 0.00 | 58 | 1013.0 |
| 20260904203012 | 69 | 180 | 8.0 | 8.0 | 0.00 | 0.00 | 0.00 | 58 | 1013.0 |
| 20260904202807 | 69 | 180 | 8.0 | 8.0 | 0.00 | 0.00 | 0.00 | 58 | 1013.0 |
| 20260904202606 | 69 | 180 | 6.0 | 6.0 | 0.00 | 0.00 | 0.00 | 58 | 1013.0 |
| 20260904202405 | 69 | 180 | 7.0 | 7.0 | 0.00 | 0.00 | 0.00 | 58 | 1013.0 |
| 20260904202008 | 69 | 180 | 8.0 | 8.0 | 0.00 | 0.00 | 0.00 | 58 | 1013.0 |
| 20260904201805 | 69 | 180 | 8.0 | 8.0 | 0.00 | 0.00 | 0.00 | 58 | 1013.0 |
| 20260904201607 | 69 | 180 | 7.0 | 7.0 | 0.00 | 0.00 | 0.00 | 58 | 1013.0 |
| 20260904201405 | 69 | 180 | 6.0 | 6.0 | 0.00 | 0.00 | 0.00 | 58 | 1013.0 |
| 20260904201011 | 69 | 180 | 6.0 | 6.0 | 0.00 | 0.00 | 0.00 | 58 | 1013.0 |
| 20260904200805 | 69 | 180 | 5.0 | 5.0 | 0.00 | 0.00 | 0.00 | 58 | 1013.0 |
| 20260904200606 | 70 | 180 | 5.0 | 5.0 | 0.00 | 0.00 | 0.00 | 57 | 1013.0 |
| 20260904200406 | 70 | 180 | 5.0 | 5.0 | 0.00 | 0.00 | 0.00 | 57 | 1013.0 |
| 20260904200205 | 70 | 180 | 5.0 | 5.0 | 0.00 | 0.00 | 0.00 | 57 | 1013.0 |
| 20260904200018 | 70 | 180 | 5.0 | 5.0 | 0.00 | 0.00 | 0.00 | 56 | 1013.0 |
| 20260904195806 | 70 | 180 | 5.0 | 5.0 | 0.00 | 0.00 | 0.00 | 56 | 1013.0 |
| 20260904195405 | 71 | 180 | 7.0 | 7.0 | 0.00 | 0.00 | 0.00 | 55 | 1013.0 |
| 20260904195205 | 71 | 180 | 7.0 | 7.0 | 0.00 | 0.00 | 0.00 | 55 | 1013.0 |
| 20260904195008 | 71 | 180 | 7.0 | 7.0 | 0.00 | 0.00 | 0.00 | 55 | 1013.0 |
| 20260904194807 | 71 | 180 | 7.0 | 7.0 | 0.00 | 0.00 | 0.00 | 55 | 1013.0 |
| 20260904194605 | 71 | 180 | 7.0 | 7.0 | 0.00 | 0.00 | 0.00 | 55 | 1013.0 |
| 20260904194407 | 70 | 180 | 6.0 | 6.0 | 0.00 | 0.00 | 0.00 | 55 | 1013.0 |
| 20260904194010 | 70 | 180 | 7.0 | 7.0 | 0.00 | 0.00 | 0.00 | 56 | 1013.0 |
| 20260904193807 | 70 | 180 | 8.0 | 8.0 | 0.00 | 0.00 | 0.00 | 56 | 1013.0 |
| 20260904193606 | 69 | 180 | 6.0 | 6.0 | 0.00 | 0.00 | 0.00 | 57 | 1013.0 |
| 20260904193406 | 69 | 180 | 0.0 | 0.0 | 0.00 | 0.00 | 0.00 | 57 | 1013.0 |
| 20260904192807 | 69 | 180 | 0.0 | 0.0 | 0.00 | 0.00 | 0.00 | 57 | 1013.0 |
| 20260904192405 | 69 | 180 | 0.0 | 0.0 | 0.00 | 0.00 | 0.00 | 57 | 1013.0 |
| 20260904192205 | 69 | 180 | 0.0 | 0.0 | 0.00 | 0.00 | 0.00 | 57 | 1013.0 |
| 20260904192011 | 69 | 180 | 0.0 | 0.0 | 0.00 | 0.00 | 0.00 | 57 | 1013.0 |
| 20260904191607 | 69 | 180 | 0.0 | 0.0 | 0.00 | 0.00 | 0.00 | 57 | 1013.0 |